Location: Cineviz Liman?
(36.3667°N, 30.5000°E)
Time: 03:47:52
(UTC+00:00)

Daily predictions for brighter satellites

Satellite Brightness Start Highest point End
(mag) Time Altitude Azimuth Time Altitude Azimuth Time Altitude Azimuth
H-2A ROCKET BODY 4.1 00:47:42 24° SE 00:47:42 24° SE 00:52:48 10° ESE
USA 234 4.3 00:47:35 10° ENE 00:53:29 35° SE 00:54:01 35° SE
Cosmos 1833 Rocket 4.3 00:56:17 27° ESE 00:57:08 28° ESE 01:01:51 10° NE
CZ-2C R/B 3.6 01:02:43 10° NNE 01:06:27 40° ENE 01:06:27 40° ENE
Cosmos 2123 Rocket 4.1 01:05:42 10° N 01:11:56 71° E 01:12:42 64° SE
FENGYUN 3A 4.4 01:10:01 10° NNE 01:13:38 44° NNE 01:13:38 44° NNE
SL-19 R/B 4.4 01:14:40 10° NNE 01:20:56 83° ESE 01:21:05 82° SE
Cosmos 1151 Rocket 4.4 01:23:03 36° E 01:23:03 36° E 01:26:47 10° NNE
Cosmos 1934 Rocket 4.1 01:24:01 66° NNW 01:24:01 66° NNW 01:29:37 10° N
Cosmos 1535 Rocket 4.3 01:24:24 89° NNW 01:24:24 89° NNW 01:30:30 10° N
Cosmos 1605 Rocket 4.1 01:24:12 47° SSE 01:25:59 70° E 01:32:01 10° NNE
ATLAS CENTAUR R/B 3.5 01:35:23 21° SSE 01:37:26 29° ESE 01:41:36 10° NE
CZ-2C R/B 3.8 01:34:05 10° SE 01:38:52 40° ENE 01:43:45 10° N
Cosmos 2084 4.2 01:40:47 46° NNE 01:41:17 49° NE 01:45:27 10° SE
USA 305 3.6 01:42:43 48° NE 01:42:43 48° NE 01:45:47 10° NE
METEOR-M 4.0 01:41:32 10° NNE 01:46:55 86° ESE 01:48:37 45° S
DELTA 2 R/B (1) 3.7 01:49:14 55° SSW 01:50:06 64° SSE 01:55:38 10° ENE
IRS-P3 4.1 01:47:29 10° NNE 01:52:51 85° ESE 01:55:27 32° S
PAYLOAD A 4.1 01:50:18 10° N 01:54:28 53° NW 01:54:28 53° NW
BREEZE M DEB (TANK) 3.7 01:56:24 35° ENE 01:56:24 35° ENE 01:58:29 10° ENE
Atlas Centaur 2 3.2 01:53:42 39° SW 01:56:14 52° S 02:02:58 10° E
Cosmos 407 Rocket 3.8 01:51:43 10° NNW 01:57:02 67° ENE 02:02:20 10° SSE
Meteor 1-14 Rocket 4.2 01:57:10 10° NNW 02:03:02 67° W 02:08:46 10° S
Cosmos 1656 3.6 01:58:30 10° NNW 02:04:14 86° WSW 02:09:53 10° SSE
Tiangong -1.1 02:05:56 41° NNE 02:05:56 41° NNE 02:08:42 10° E
BREEZE-M DEB (TANK) 4.4 02:06:06 11° N 02:06:06 11° N 02:06:34 10° N
CZ-2D R/B 3.3 02:02:07 10° NNE 02:06:06 83° ESE 02:07:30 39° S
ALOS 3.6 02:03:07 10° N 02:05:40 24° NW 02:05:40 24° NW
Meteor 1-29 3.7 02:08:01 10° NNE 02:11:14 50° E 02:13:25 18° S
X-37B 2.2 02:12:01 24° N 02:12:01 24° N 02:13:51 10° NE
Meteor 1-5 Rocket 4.5 02:10:46 10° NNW 02:15:41 37° W 02:15:43 37° W
USA 307 3.0 02:15:27 48° WNW 02:15:55 50° NW 02:19:59 10° NE
ARIANE 5 R/B 2.5 02:13:06 10° N 02:18:02 56° WNW 02:20:32 28° SW
SL-08 R/B 3.5 02:15:16 10° SSE 02:19:51 72° ENE 02:24:31 10° N
Meteor 1-11 Rocket 4.1 02:14:03 10° N 02:20:02 72° E 02:25:57 10° SSE
Helios 1B rocket 3.4 02:16:40 10° N 02:19:28 29° NW 02:19:28 29° NW
H-2A R/B 3.6 02:17:31 10° NNE 02:21:03 46° E 02:24:34 10° S
GP-B 4.5 02:20:02 10° SSE 02:24:10 41° E 02:28:20 10° NNE
Cosmos 1153 Rocket 4.5 02:23:55 10° SSW 02:29:55 58° W 02:36:00 10° N
Cosmos 1633 Rocket 2.9 02:25:44 10° N 02:30:05 80° W 02:34:24 10° S
USA 306 3.8 02:29:43 28° WNW 02:30:40 32° NW 02:34:23 10° NNE
Cosmos 2100 Rocket 3.9 02:26:54 10° S 02:33:02 90° SE 02:39:13 10° N
Cosmos 1624 Rocket 4.2 02:30:23 20° SW 02:33:52 52° WNW 02:39:03 10° N
Cosmos 1484 Rocket 3.2 02:31:58 10° N 02:35:43 41° WNW 02:37:39 24° SW
Cosmos 2360 4.3 02:30:44 10° NNW 02:36:28 81° ENE 02:42:09 10° SSE
USA 234 3.4 02:30:13 10° NE 02:36:36 58° NW 02:41:22 19° WSW
Cosmos 2098 Rocket 2.0 02:33:48 10° NNW 02:36:38 58° W 02:39:39 10° S
Cosmos 1666 Rocket 3.8 02:35:27 10° NNW 02:39:45 48° W 02:44:02 10° SSW
Cosmos 1833 Rocket 3.3 02:38:03 22° WSW 02:40:51 35° WNW 02:46:01 10° N
CZ-2C R/B 3.2 02:35:32 10° N 02:41:20 84° WNW 02:46:53 10° SSW
Cosmos 1328 Rocket 3.9 02:38:04 13° SSW 02:41:40 43° W 02:45:50 10° N
CZ-2C R/B 3.9 02:42:06 10° NNW 02:45:18 17° WNW 02:45:49 17° WNW
Cosmos 2016 Rocket 4.4 02:39:27 10° S 02:45:42 68° E 02:52:02 10° NNE
Meteor 1-4 Rocket 2.4 02:43:56 10° N 02:47:34 83° W 02:51:12 10° S
Meteor 1-19 Rocket 4.4 02:42:56 10° S 02:48:24 72° E 02:53:48 10° NNE
COSMOS 2406 3.2 02:43:51 10° SW 02:49:26 59° WNW 02:55:02 10° NNE
USA 308 4.0 02:48:54 19° WNW 02:50:51 27° NW 02:54:26 10° NNE
Cosmos 2082 Rocket 2.1 02:45:16 10° SSW 02:50:52 78° WNW 02:56:30 10° NNE
Envisat 3.2 02:46:00 10° N 02:50:54 49° WNW 02:55:45 10° SSW
Cosmos 44 Rocket 3.2 02:53:48 10° SW 02:58:31 70° WNW 03:03:13 10° NNE
PSLV R/B 3.5 02:54:19 10° N 02:58:37 68° WNW 03:02:52 10° SSW
Cosmos 1536 3.0 02:54:59 10° NNW 02:58:52 47° W 03:02:44 10° SSW
Cosmos 1515 Rocket 3.6 02:55:16 10° SSW 02:59:35 56° W 03:03:57 10° N
FALCON 9 R/B 1.9 02:59:40 15° SW 03:00:30 18° SSW 03:02:18 10° SSE
YAOGAN 6 4.1 03:04:37 10° NNW 03:07:13 19° WNW 03:09:49 10° WSW
Cosmos 1697 Rocket 2.8 03:03:14 10° NNW 03:08:42 53° WSW 03:14:10 10° S
Cosmos 1470 Rocket 3.8 03:06:33 10° NNW 03:10:41 45° W 03:14:50 10° SSW
Cosmos 1346 Rocket 4.5 03:11:35 10° WSW 03:13:58 15° WNW 03:16:24 10° NW
Cosmos 1461 3.4 03:11:48 10° SSW 03:15:38 60° ESE 03:19:39 10° NE
ATLAS CENTAUR R/B 2.6 03:11:49 10° WSW 03:16:05 32° NW 03:20:27 10° N
Cosmos 1864 Rocket 4.5 03:10:59 10° SSW 03:17:07 70° W 03:23:22 10° N
Cosmos 1802 Rocket 4.2 03:11:40 10° SSW 03:17:55 55° W 03:24:10 10° N
Meteor 1-27 Rocket 4.5 03:12:55 10° SW 03:17:57 32° WNW 03:23:08 10° NNW
ASTRO E2 3.5 03:15:05 10° WSW 03:18:44 39° S 03:22:25 10° ESE
CZ-2C R/B 3.7 03:15:25 10° SW 03:19:17 21° W 03:23:11 10° NW
SL-24 R/B - RUBIN 2 4.3 03:17:34 10° SSW 03:22:05 58° ESE 03:26:22 10° NE
CENTAUR R/B 2.4 03:17:48 10° SW 03:23:17 74° NW 03:29:55 10° NNE
Cosmos 1743 4.0 03:21:48 10° NW 03:24:36 20° W 03:27:24 10° SW
Meteor 1-18 Rocket 4.3 03:20:36 10° S 03:26:23 87° W 03:32:06 10° N
